This is the latest recevied weather packets stored in our database for station/object KD0SBN. If no packets are shown the sender has not sent any weather packets the latest 10 day(s).
| Time | Temp. | Humidity | Pressure | Rain* | Wind** | Luminosity | Snow |
|---|---|---|---|---|---|---|---|
| 1777971598 | 10.56° C | 68% | 1010.9 hPa | 0 mm | - | - | - |
| 1777971296 | 10.56° C | 68% | 1010.9 hPa | 0 mm | - | - | - |
| 1777970994 | 10.56° C | 67% | 1010.9 hPa | 0 mm | - | - | - |
| 1777970692 | 11.11° C | 66% | 1010.9 hPa | 0 mm | - | - | - |
| 1777970389 | 11.11° C | 65% | 1011.1 hPa | 0 mm | - | - | - |
| 1777970086 | 11.67° C | 65% | 1011.1 hPa | 0 mm | - | - | - |
| 1777969782 | 11.67° C | 64% | 1010.9 hPa | 0 mm | - | - | - |
| 1777969478 | 11.67° C | 64% | 1010.8 hPa | 0 mm | - | - | - |
| 1777969176 | 11.67° C | 64% | 1010.9 hPa | 0 mm | - | - | - |
| 1777968872 | 11.11° C | 66% | 1011.1 hPa | 0 mm | - | - | - |
| 1777968568 | 11.67° C | 67% | 1011.1 hPa | 0 mm | - | - | - |
| 1777968265 | 11.67° C | 67% | 1011.1 hPa | 0 mm | - | - | - |
| 1777967960 | 11.67° C | 66% | 1010.9 hPa | 0 mm | - | - | - |
| 1777967658 | 11.67° C | 66% | 1011.1 hPa | 0 mm | - | - | - |
| 1777967355 | 11.67° C | 66% | 1010.8 hPa | 0 mm | - | - | - |
| 1777967052 | 11.67° C | 66% | 1011.1 hPa | 0 mm | - | - | - |
| 1777966749 | 11.67° C | 66% | 1010.8 hPa | 0 mm | - | - | - |
| 1777966447 | 11.67° C | 66% | 1010.8 hPa | 0 mm | - | - | - |
| 1777966144 | 11.67° C | 66% | 1011.1 hPa | 0 mm | - | - | - |
| 1777965839 | 12.22° C | 66% | 1010.9 hPa | 0 mm | - | - | - |
| 1777965536 | 12.22° C | 65% | 1010.6 hPa | 0 mm | - | - | - |
| 1777965232 | 12.22° C | 64% | 1010.5 hPa | 0 mm | - | - | - |
| 1777964931 | 12.78° C | 64% | 1010.5 hPa | 0 mm | - | - | - |
| 1777964627 | 12.78° C | 63% | 1010.6 hPa | 0 mm | - | - | - |
| 1777964322 | 12.78° C | 63% | 1010.2 hPa | 0 mm | - | - | - |
* Rain latest hour (hover to see other rain measurements)
** Current wind speed in m/s (hover to see current wind gust speed)